GW0273 Weather Reports


Display with metric or nautical units.
time (UTC)temp
F
wind
direction
speed
MPH
gust
MPH
rain 1hr
in
rain 24hr
in
rain mn
in
humidity
%
barometer
mb
20260505080044 46 271 11.0 24.0 0.00 0.73 0.00 78 1007.1
20260505074538 46 202 11.0 34.0 0.00 0.74 0.00 78 1006.6
20260505073043 46 250 8.0 25.0 0.00 0.74 0.00 77 1006.4
20260505071540 46 270 10.0 23.0 0.00 0.74 0.00 78 1006.1
20260505070036 46 276 7.0 18.0 0.00 0.74 0.00 77 1006.0
20260505064535 46 264 8.0 25.0 0.00 0.74 0.00 76 1005.4
20260505063045 46 216 7.0 23.0 0.00 0.74 0.00 76 1005.4
20260505061535 47 237 10.0 21.0 0.00 0.74 0.00 75 1005.2
20260505060035 47 236 11.0 23.0 0.00 0.74 0.00 75 1005.0
20260505054543 48 182 11.0 28.0 0.00 0.75 0.00 75 1005.0
20260505053043 48 214 13.0 24.0 0.00 0.75 0.00 75 1005.0
20260505051541 48 218 11.0 23.0 0.00 0.75 0.00 75 1004.7
20260505041545 49 215 10.0 27.0 0.00 0.76 0.00 75 1003.9
20260505040042 49 200 8.0 27.0 0.00 0.76 0.00 75 1003.5
20260505034536 50 179 10.0 25.0 0.00 0.76 0.00 74 1003.4
20260505033034 50 261 11.0 27.0 0.00 0.76 0.00 73 1003.2
20260505031537 50 228 11.0 26.0 0.00 0.76 0.00 72 1003.0
20260505030047 51 222 7.0 20.0 0.00 0.76 0.00 71 1002.8
20260505024531 51 213 8.0 27.0 0.00 0.82 0.76 69 1002.6
20260505023035 51 246 6.0 18.0 0.00 0.82 0.76 67 1002.6
20260505021533 51 250 9.0 21.0 0.00 0.82 0.76 64 1002.3
20260505020047 51 189 5.0 16.0 0.00 0.82 0.76 62 1002.2
20260505014532 51 178 1.0 17.0 0.00 1.07 0.76 62 1001.8
20260505013032 51 262 8.0 20.0 0.00 1.07 0.76 60 1001.6
20260505011536 51 182 10.0 25.0 0.00 1.07 0.76 60 1001.4
20260505010056 51 242 14.0 25.0 0.00 1.07 0.76 57 1001.2
20260505004535 50 189 5.0 32.0 0.00 1.24 0.76 59 1001.0
20260505003045 51 188 9.0 21.0 0.00 1.24 0.76 57 1001.3
20260505001535 51 214 9.0 27.0 0.00 1.24 0.76 52 1001.0
20260505000037 51 188 6.0 20.0 0.00 1.24 0.76 52 1000.6
20260504234536 51 204 8.0 17.0 0.00 1.37 0.76 54 1000.2
20260504233041 51 42 12.0 24.0 0.00 1.37 0.76 55 1000.1
20260504231535 51 240 9.0 23.0 0.00 1.37 0.76 55 999.5
20260504230039 50 242 6.0 17.0 0.00 1.37 0.76 57 999.3
20260504224535 50 233 8.0 18.0 0.00 1.62 0.76 58 999.4
20260504223033 50 185 5.0 17.0 0.00 1.62 0.76 59 999.2
20260504221535 50 274 5.0 16.0 0.00 1.62 0.76 59 999.5
20260504220035 50 185 6.0 15.0 0.00 1.62 0.76 59 999.2
20260504214540 50 242 14.0 27.0 0.00 1.70 0.76 58 999.1
20260504213034 50 219 13.0 28.0 0.00 1.70 0.76 59 998.8
20260504211532 50 200 12.0 30.0 0.00 1.70 0.76 60 998.8
20260504210033 50 286 10.0 24.0 0.00 1.70 0.76 60 998.8
20260504204543 50 200 12.0 25.0 0.00 1.79 0.76 62 998.5
20260504203037 49 188 12.0 25.0 0.00 1.79 0.76 63 998.1
20260504201533 49 248 15.0 32.0 0.00 1.79 0.76 64 998.0
20260504200043 48 201 13.0 34.0 0.00 1.79 0.76 67 997.5
20260504194535 48 199 15.0 38.0 0.00 1.79 0.76 69 997.1
20260504193032 48 205 11.0 28.0 0.00 1.79 0.76 72 996.8
20260504191538 47 321 11.0 29.0 0.00 1.79 0.76 75 996.3
20260504190036 46 255 13.0 32.0 0.00 1.79 0.76 75 996.0
20260504184538 47 182 10.0 33.0 0.00 1.79 0.76 75 995.7
20260504183036 46 195 14.0 36.0 0.00 1.79 0.76 77 994.7
20260504181534 45 283 14.0 33.0 0.00 1.79 0.76 79 994.7
20260504180033 45 295 12.0 40.0 0.00 1.79 0.76 82 994.8
20260504174530 44 247 17.0 40.0 0.00 1.79 0.76 83 994.4
20260504173035 43 219 16.0 39.0 0.00 1.79 0.76 85 994.0
20260504171535 43 264 17.0 43.0 0.04 1.79 0.76 87 994.4
20260504081535 37 200 2.0 7.0 0.00 1.06 0.03 97 974.6